Location: Les Moreaux
(47.2278°N, 1.4966°E)
Time: 20:06:03
(UTC+00:00)

NOSS 3-1 (C) - Pass Details

Date: 19 May 2025
Orbit: 625 x 1577 km, 63.4° (Epoch: 18 June)

Event Time Altitude Azimuth Distance (km) Brightness Sun altitude
Rises 20:16:18 0° 184° (S) 2,927 5.7 -7.4°
Reaches altitude 10° 20:18:43 10° 172° (S) 2,073 4.8 -7.7°
Maximum altitude 20:22:38 28° 113° (ESE) 1,346 3.8 -8.2°
Drops below altitude 10° 20:27:07 10° 57° (ENE) 2,401 5.4 -8.8°
Sets 20:30:07 0° 46° (NE) 3,491 6.4 -9.1°
